Weather History for Kansas City, MO

Change the Weather History Date:

Monday, December 10, 2012

  Actual Average Record
Temperature  
Mean Temperature 24 °F -  
Max Temperature 30 °F 43 °F 68 °F (1996)
Min Temperature 19 °F 27 °F 12 °F (2013)
Degree Days  
Heating Degree Days 40    
Moisture  
Dew Point 10 °F    
Average Humidity 57    
Maximum Humidity 65    
Minimum Humidity 43    
Precipitation  
Precipitation 0.00 in - - ()
Sea Level Pressure  
Sea Level Pressure 30.08 in    
Wind  
Wind Speed 10 mph (West)    
Max Wind Speed 16 mph    
Max Gust Speed 23 mph    
Visibility 10 miles    
Events      
Averages and records for this station are not official NWS values.
T = Trace of Precipitation, MM = Missing Value Source: NWS Daily Summary

Daily Weather History Graph

Daily Weather History Graph

Search for Another Location

Airport:

Trip Planner

Search our weather history database for the weather conditions in past years. The results will help you decide how hot, cold, wet, or windy it might be!

Date:

Astronomy

Dec. 10, 2012 Rise Set
Actual Time 7:27 AM CST 4:55 PM CST
Civil Twilight 6:57 AM CST 5:25 PM CST
Nautical Twilight 6:23 AM CST 5:59 PM CST
Astronomical Twilight 5:51 AM CST 6:31 PM CST
Moon 4:12 AM CST (12/10) 2:45 PM CST (12/10)
Length of Visible Light 10h 28m
Length of Day
9h 28m
Waning Crescent, 10% of the Moon is Illuminated
Dec 10
Waning Crescent
Dec 13
New
Dec 19
First Quarter
Dec 28
Full
Jan 4
Last Quarter

Hourly Weather History & Observations

Time (CST) Temp. Windchill Dew Point Humidity Pressure Visibility Wind Dir Wind Speed Gust Speed Precip Events Conditions
12:54 AM 21.9 °F 9.8 °F 10.0 °F 60% 30.08 in 10.0 mi NW 12.7 mph 21.9 mph N/A   Overcast
1:54 AM 21.9 °F 9.8 °F 10.0 °F 60% 30.08 in 10.0 mi NW 12.7 mph - N/A   Overcast
2:54 AM 21.9 °F 10.4 °F 10.9 °F 63% 30.07 in 10.0 mi WNW 11.5 mph 20.7 mph N/A   Overcast
3:54 AM 21.0 °F 9.9 °F 10.9 °F 65% 30.08 in 10.0 mi NW 10.4 mph - N/A   Overcast
4:54 AM 21.0 °F 9.3 °F 10.0 °F 63% 30.09 in 10.0 mi WNW 11.5 mph 19.6 mph N/A   Overcast
5:54 AM 21.0 °F 7.1 °F 10.0 °F 63% 30.08 in 10.0 mi NW 16.1 mph 23.0 mph N/A   Overcast
6:54 AM 21.2 °F 11.7 °F 10.4 °F 63% 30.08 in 10.0 mi WNW 8.1 mph - N/A   Overcast
7:12 AM 21.2 °F 10.9 °F 8.6 °F 58% 30.08 in 10.0 mi NW 9.2 mph - N/A   Overcast
7:54 AM 19.9 °F 7.3 °F 8.1 °F 60% 30.13 in 10.0 mi WNW 12.7 mph - N/A   Overcast
8:54 AM 21.0 °F 10.6 °F 8.1 °F 57% 30.14 in 10.0 mi WNW 9.2 mph - N/A   Overcast
9:54 AM 21.0 °F 10.6 °F 8.1 °F 57% 30.13 in 10.0 mi West 9.2 mph - N/A   Overcast
10:54 AM 21.9 °F 12.5 °F 9.0 °F 58% 30.14 in 10.0 mi WNW 8.1 mph - N/A   Overcast
11:54 AM 24.1 °F 15.2 °F 10.0 °F 55% 30.12 in 10.0 mi WNW 8.1 mph - N/A   Overcast
12:54 PM 27.0 °F 18.7 °F 12.0 °F 53% 30.09 in 10.0 mi West 8.1 mph - N/A   Overcast
1:25 PM 28.4 °F 21.2 °F 14.0 °F 55% 30.05 in 10.0 mi NW 6.9 mph - N/A   Scattered Clouds
1:54 PM 28.9 °F 22.8 °F 14.0 °F 54% 30.07 in 10.0 mi NW 5.8 mph - N/A   Clear
2:54 PM 30.0 °F 24.1 °F 15.1 °F 54% 30.05 in 10.0 mi WSW 5.8 mph - N/A   Clear
3:54 PM 30.0 °F 22.4 °F 10.0 °F 43% 30.05 in 10.0 mi West 8.1 mph - N/A   Clear
4:54 PM 28.0 °F 21.7 °F 10.0 °F 47% 30.05 in 10.0 mi WSW 5.8 mph - N/A   Clear
5:54 PM 25.0 °F 18.1 °F 10.0 °F 53% 30.05 in 10.0 mi SSW 5.8 mph - N/A   Clear
6:54 PM 26.1 °F 21.9 °F 10.0 °F 51% 30.05 in 10.0 mi SW 3.5 mph - N/A   Clear
7:54 PM 23.0 °F 15.8 °F 10.0 °F 58% 30.05 in 10.0 mi SSW 5.8 mph - N/A   Clear
8:54 PM 24.1 °F 16.0 °F 10.9 °F 57% 30.06 in 10.0 mi SSW 6.9 mph - N/A   Clear
9:54 PM 24.1 °F 17.0 °F 10.0 °F 55% 30.05 in 10.0 mi SSW 5.8 mph - N/A   Clear
10:54 PM 23.0 °F 17.0 °F 9.0 °F 55% 30.05 in 10.0 mi SSW 4.6 mph - N/A   Clear
11:54 PM 23.0 °F 14.7 °F 9.0 °F 55% 30.05 in 10.0 mi SSW 6.9 mph - N/A   Clear